Theta_e
303 302 300 301 302 302 303 303 304 303 304 304 302 303 299 298 297 296 295 290 286 286 285 286 286 289 289 289 288 288 287 287
302 299 299 300 301 301 302 302 302 302 303 302 302 299 298 296 297 294 291 287 285 284 285 284 284 288 288 287 287 286 285 285
300 298 298 298 299 300 301 301 302 301 301 300 300 298 296 295 295 292 289 286 284 284 283 284 284 286 287 285 285 285 284 284
298 298 298 298 299 299 300 301 300 300 299 299 298 296 294 293 293 290 288 285 283 283 282 283 283 285 286 285 285 285 284 283
300 300 299 298 298 298 299 300 299 298 297 297 297 295 293 292 290 288 286 284 283 282 283 283 283 284 284 284 284 284 283 283
300 301 300 297 297 297 298 298 298 296 296 296 296 295 292 289 287 285 285 283 282 282 282 282 282 283 283 283 283 282 282 281
301 299 298 298 296 296 296 297 296 295 294 295 294 291 289 287 286 283 283 283 282 281 281 281 281 284 285 283 282 282 281 280
303 302 301 300 298 296 296 296 294 292 292 291 290 288 287 286 284 282 282 282 281 281 281 280 281 285 285 284 281 281 281 280
303 303 303 300 298 296 295 293 291 290 289 289 287 287 286 285 283 282 282 281 281 280 281 281 281 286 286 283 281 281 280 280
302 300 299 298 296 292 289 290 288 288 288 288 287 286 285 284 283 282 281 281 281 281 280 280 280 286 286 283 281 281 280 280
296 294 294 295 291 288 287 287 286 287 288 288 287 285 284 284 284 284 282 281 280 280 281 281 281 286 286 283 282 281 280 279
292 291 291 289 287 286 286 285 286 286 286 285 285 284 285 284 284 283 281 280 279 279 279 280 282 284 286 286 284 285 283 282
288 287 286 285 285 284 284 284 284 284 284 284 284 284 284 283 282 282 281 279 279 279 279 280 280 284 286 287 287 287 285 283
283 282 282 282 284 283 282 282 282 282 281 282 283 283 283 282 281 281 281 280 279 279 279 279 279 281 286 287 288 288 284 284
281 281 280 281 281 281 281 281 280 280 281 282 282 282 283 283 283 282 282 281 280 280 280 280 279 280 282 284 286 286 286 286
280 280 279 281 281 282 282 283 283 282 281 282 282 283 282 283 283 282 283 284 282 283 283 282 281 281 282 283 283 284 285 280
279 278 278 278 278 280 284 284 282 281 282 282 282 282 282 281 279 284 284 285 286 286 285 284 285 284 284 284 284 284 283 276
276 276 275 274 273 274 279 283 282 282 281 281 280 280 279 279 279 278 281 284 284 284 284 283 282 282 283 284 283 283 282 276
274 272 272 272 270 271 277 281 280 280 279 281 280 281 280 280 280 281 280 279 279 280 280 280 280 281 282 282 281 277 277 275
271 270 270 269 268 269 275 277 278 279 278 278 278 278 278 278 278 279 279 279 276 277 276 278 281 281 282 280 275 274 272 269
Wind_Speed
7 5 5 8 10 12 13 14 15 17 17 15 16 15 10 10 13 12 10 12 11 11 10 10 9 12 12 10 11 11 8 7
5 3 5 6 9 11 13 14 14 16 17 17 15 14 12 12 14 13 13 12 12 12 12 12 12 14 13 12 13 13 11 10
4 4 6 8 10 11 12 14 14 15 16 16 16 16 15 13 15 14 14 12 13 12 11 11 12 14 14 14 12 13 13 12
5 7 8 10 11 11 12 13 13 15 16 17 16 16 16 14 14 14 14 13 13 13 14 13 12 14 13 13 13 12 12 12
7 9 9 10 9 10 13 13 13 15 16 16 16 16 14 13 13 13 13 14 14 14 14 14 13 13 12 12 12 11 10 11
12 12 12 11 10 13 14 13 14 15 16 16 13 15 13 13 12 12 13 13 14 14 13 13 12 11 14 13 12 12 11 10
11 12 12 14 14 14 15 15 15 16 16 16 14 13 13 13 13 13 13 13 13 15 15 15 10 20 22 16 12 11 11 10
15 12 10 11 10 13 13 11 14 14 12 13 13 13 13 13 13 13 14 14 15 14 14 14 13 25 24 20 11 11 10 9
15 13 10 7 9 9 8 11 12 12 12 11 12 13 13 14 14 13 12 13 14 14 14 13 11 24 23 19 11 9 9 9
10 10 9 8 5 6 7 9 10 12 12 13 13 13 13 13 13 12 11 11 12 12 13 13 9 23 24 17 10 9 9 8
7 8 8 6 3 7 7 8 10 10 10 10 11 12 13 13 13 11 11 11 9 9 10 11 11 24 24 16 8 9 7 7
8 9 8 6 3 4 5 8 7 7 8 9 10 11 11 10 9 10 10 9 9 10 8 10 12 17 26 24 11 9 8 8
7 6 7 4 1 3 4 3 5 7 8 8 9 7 8 11 10 10 11 11 10 10 8 7 9 16 25 26 18 14 9 9
3 2 4 5 2 2 3 6 7 7 7 8 9 9 10 12 12 10 10 9 10 9 8 8 7 7 21 25 24 19 9 6
1 3 4 4 4 5 5 5 7 8 8 8 8 9 8 7 8 9 9 8 8 8 8 7 7 8 8 9 9 14 11 10
2 4 4 5 8 6 5 6 8 8 8 8 7 8 8 6 6 6 8 10 10 9 9 9 9 10 13 13 9 8 9 5
5 5 5 7 8 6 5 5 6 7 7 6 6 7 6 6 5 7 6 7 8 11 10 6 9 14 20 18 19 17 15 4
7 5 5 6 7 5 3 5 4 6 6 5 5 5 6 6 6 7 4 6 6 6 8 8 7 11 14 17 17 16 16 6
7 5 6 7 6 6 4 6 6 7 6 5 5 5 5 6 5 5 7 6 4 3 4 4 7 10 11 14 11 6 5 4
8 9 8 7 9 9 6 4 7 7 5 5 4 4 4 4 4 4 5 5 5 5 5 2 9 7 9 12 4 5 4 3
Wind_Direction
244 232 205 205 197 203 209 211 209 211 208 203 201 198 188 178 191 188 181 174 165 166 161 162 162 167 164 156 154 149 146 145
222 193 212 213 218 205 205 207 206 209 208 204 197 189 185 187 194 188 181 170 169 169 163 163 162 168 165 158 157 152 148 150
261 227 214 217 216 215 212 207 208 204 205 206 200 193 188 189 192 184 182 171 169 165 164 166 163 168 166 157 160 158 159 156
222 225 223 225 219 214 221 211 202 205 204 201 201 196 193 191 187 187 180 170 168 168 169 169 169 168 170 163 162 164 161 162
240 236 234 234 229 228 226 216 202 204 206 206 201 196 189 186 184 179 176 171 174 179 175 174 168 170 168 160 159 158 160 162
234 233 229 226 228 232 229 212 201 207 209 209 201 197 186 180 178 175 177 179 179 174 175 173 172 172 167 162 159 159 158 161
240 236 224 225 223 222 225 213 201 207 211 205 199 187 184 176 174 175 180 178 176 180 176 175 177 177 172 163 158 154 157 164
273 267 250 242 230 227 226 204 199 204 201 197 188 186 182 173 173 180 184 175 181 181 177 180 175 177 173 165 156 156 162 155
271 278 276 252 238 238 199 192 193 200 198 191 187 187 180 177 180 178 179 183 181 182 183 177 176 175 171 164 150 153 161 165
275 281 280 267 243 193 183 188 192 201 199 191 188 183 179 183 179 173 170 177 182 178 174 172 162 170 168 162 157 157 169 183
300 292 284 288 218 175 187 187 202 198 197 185 181 178 178 175 175 175 173 169 163 162 166 154 157 173 174 167 161 164 174 192
304 293 307 314 187 194 176 201 181 158 154 162 170 171 170 164 160 156 153 145 146 144 147 155 166 175 181 182 178 177 177 193
313 322 340 340 176 158 191 138 134 138 143 150 150 148 148 145 143 148 141 143 144 143 155 173 177 184 189 192 192 186 189 202
303 341 6 355 347 164 129 133 121 117 120 129 133 137 144 142 143 144 153 158 157 166 170 178 177 191 196 201 206 209 205 195
269 78 64 27 40 77 96 102 108 112 118 126 127 132 137 141 149 152 161 163 164 171 179 178 182 192 197 207 216 218 212 206
103 82 62 79 80 86 109 121 119 117 123 127 131 137 142 143 158 169 179 180 177 185 184 181 194 205 200 202 200 206 207 131
76 81 67 69 65 36 50 103 125 130 139 142 140 141 136 131 99 100 141 168 179 175 178 181 197 199 204 211 218 210 185 177
113 112 109 82 67 17 24 117 121 130 125 113 117 127 132 139 142 136 131 134 146 157 193 192 188 191 202 212 212 207 192 202
91 74 72 79 58 347 341 123 121 119 121 137 141 149 154 161 161 161 163 166 142 106 145 185 192 191 190 178 158 165 185 185
68 56 49 44 27 354 347 106 125 129 128 128 133 134 136 138 141 139 152 153 140 137 78 73 134 121 158 135 146 167 163 149